TimeEDT,TemperatureF,Dew PointF,Humidity,Sea Level PressureIn,VisibilityMPH,Wind Direction,Wind SpeedMPH,Gust SpeedMPH,PrecipitationIn,Events,Conditions,WindDirDegrees,DateUTC
12:15 AM,50.0,50.0,100,29.94,10.0,WSW,4.6,-,N/A,,Clear,240,2013-04-02 04:15:00
12:35 AM,51.8,51.8,100,29.95,10.0,WSW,5.8,-,N/A,,Clear,250,2013-04-02 04:35:00
12:55 AM,53.6,53.6,100,29.96,10.0,West,5.8,-,N/A,,Clear,260,2013-04-02 04:55:00
1:15 AM,55.4,51.8,88,29.96,10.0,West,4.6,-,N/A,,Clear,280,2013-04-02 05:15:00
1:35 AM,57.2,51.8,82,29.97,10.0,West,5.8,-,N/A,,Clear,280,2013-04-02 05:35:00
2:15 AM,55.4,50.0,82,29.98,10.0,NW,5.8,-,N/A,,Clear,320,2013-04-02 06:15:00
2:35 AM,55.4,50.0,82,29.99,10.0,NW,5.8,-,N/A,,Clear,310,2013-04-02 06:35:00
2:55 AM,53.6,48.2,82,29.99,10.0,NNW,4.6,-,N/A,,Clear,340,2013-04-02 06:55:00
3:15 AM,53.6,48.2,82,29.99,10.0,NNW,4.6,-,N/A,,Clear,330,2013-04-02 07:15:00
3:35 AM,53.6,46.4,77,29.99,10.0,North,4.6,-,N/A,,Clear,10,2013-04-02 07:35:00
4:15 AM,53.6,46.4,77,29.99,10.0,North,4.6,-,N/A,,Clear,350,2013-04-02 08:15:00
4:35 AM,51.8,46.4,82,29.99,10.0,North,5.8,-,N/A,,Clear,360,2013-04-02 08:35:00
4:55 AM,51.8,44.6,76,30.00,10.0,NNW,4.6,-,N/A,,Clear,340,2013-04-02 08:55:00
5:15 AM,51.8,44.6,76,30.01,10.0,NW,3.5,-,N/A,,Clear,320,2013-04-02 09:15:00
5:35 AM,50.0,44.6,82,30.02,10.0,NNW,4.6,-,N/A,,Clear,330,2013-04-02 09:35:00
5:55 AM,48.2,44.6,87,30.03,10.0,NW,5.8,-,N/A,,Clear,320,2013-04-02 09:55:00
6:15 AM,48.2,44.6,87,30.05,10.0,NNW,4.6,-,N/A,,Clear,330,2013-04-02 10:15:00
6:35 AM,48.2,44.6,87,30.06,10.0,North,4.6,-,N/A,,Clear,350,2013-04-02 10:35:00
6:55 AM,48.2,42.8,82,30.07,10.0,Calm,Calm,-,N/A,,Clear,0,2013-04-02 10:55:00
7:15 AM,48.2,42.8,82,30.09,10.0,NNE,5.8,-,N/A,,Clear,20,2013-04-02 11:15:00
7:35 AM,48.2,44.6,87,30.10,10.0,NNE,5.8,-,N/A,,Clear,30,2013-04-02 11:35:00
7:55 AM,50.0,44.6,82,30.11,10.0,NE,9.2,-,N/A,,Clear,40,2013-04-02 11:55:00
8:15 AM,51.8,44.6,76,30.12,10.0,NE,10.4,-,N/A,,Clear,40,2013-04-02 12:15:00
8:35 AM,51.8,44.6,76,30.13,10.0,NE,11.5,-,N/A,,Clear,40,2013-04-02 12:35:00
9:15 AM,53.6,41.0,62,30.14,10.0,NNE,11.5,-,N/A,,Clear,30,2013-04-02 13:15:00
9:35 AM,53.6,41.0,62,30.15,10.0,NNE,10.4,-,N/A,,Clear,30,2013-04-02 13:35:00
9:55 AM,55.4,41.0,58,30.15,10.0,ENE,10.4,-,N/A,,Clear,60,2013-04-02 13:55:00
10:35 AM,57.2,37.4,48,30.17,10.0,NE,9.2,-,N/A,,Clear,50,2013-04-02 14:35:00
10:55 AM,57.2,37.4,48,30.17,10.0,ENE,8.1,-,N/A,,Clear,70,2013-04-02 14:55:00
11:15 AM,59.0,37.4,45,30.16,10.0,ENE,6.9,-,N/A,,Clear,70,2013-04-02 15:15:00
11:55 AM,59.0,37.4,45,30.16,10.0,NNE,5.8,-,N/A,,Clear,20,2013-04-02 15:55:00
12:15 PM,59.0,37.4,45,30.15,10.0,ENE,8.1,-,N/A,,Clear,70,2013-04-02 16:15:00
12:35 PM,60.8,37.4,42,30.15,10.0,East,9.2,-,N/A,,Clear,100,2013-04-02 16:35:00
12:55 PM,59.0,37.4,45,30.15,10.0,East,6.9,-,N/A,,Clear,100,2013-04-02 16:55:00
1:15 PM,60.8,37.4,42,30.15,10.0,ESE,11.5,-,N/A,,Clear,120,2013-04-02 17:15:00
1:35 PM,60.8,41.0,48,30.14,10.0,ESE,10.4,-,N/A,,Clear,120,2013-04-02 17:35:00
2:15 PM,59.0,39.2,48,30.13,10.0,ESE,13.8,-,N/A,,Clear,120,2013-04-02 18:15:00
2:35 PM,59.0,39.2,48,30.12,10.0,ESE,11.5,17.3,N/A,,Clear,120,2013-04-02 18:35:00
3:15 PM,60.8,37.4,42,30.11,10.0,ESE,11.5,-,N/A,,Clear,120,2013-04-02 19:15:00
3:35 PM,60.8,39.2,45,30.10,10.0,ESE,12.7,-,N/A,,Clear,110,2013-04-02 19:35:00
3:55 PM,60.8,39.2,45,30.10,10.0,ESE,13.8,19.6,N/A,,Clear,120,2013-04-02 19:55:00
4:15 PM,60.8,41.0,48,30.10,10.0,ESE,13.8,18.4,N/A,,Clear,120,2013-04-02 20:15:00
4:35 PM,59.0,41.0,51,30.10,10.0,ESE,12.7,-,N/A,,Clear,120,2013-04-02 20:35:00
4:55 PM,59.0,41.0,51,30.10,10.0,ESE,11.5,-,N/A,,Clear,120,2013-04-02 20:55:00
5:15 PM,59.0,41.0,51,30.10,10.0,SE,11.5,-,N/A,,Clear,130,2013-04-02 21:15:00
5:35 PM,59.0,42.8,55,30.10,10.0,East,10.4,16.1,N/A,,Clear,100,2013-04-02 21:35:00
5:55 PM,59.0,42.8,55,30.10,10.0,ESE,10.4,-,N/A,,Clear,110,2013-04-02 21:55:00
6:15 PM,59.0,42.8,55,30.11,10.0,ESE,10.4,-,N/A,,Clear,120,2013-04-02 22:15:00
6:35 PM,59.0,42.8,55,30.11,10.0,SE,6.9,-,N/A,,Clear,130,2013-04-02 22:35:00
6:55 PM,57.2,41.0,55,30.11,10.0,ESE,9.2,-,N/A,,Clear,120,2013-04-02 22:55:00
7:15 PM,55.4,42.8,63,30.11,10.0,SSE,6.9,-,N/A,,Clear,160,2013-04-02 23:15:00
7:35 PM,55.4,44.6,67,30.11,10.0,SSE,4.6,-,N/A,,Clear,160,2013-04-02 23:35:00
8:15 PM,51.8,46.4,82,30.11,10.0,Calm,Calm,-,N/A,,Clear,0,2013-04-03 00:15:00
8:35 PM,51.8,46.4,82,30.11,10.0,Calm,Calm,-,N/A,,Clear,0,2013-04-03 00:35:00
8:55 PM,50.0,46.4,87,30.11,10.0,Calm,Calm,-,N/A,,Clear,0,2013-04-03 00:55:00
9:15 PM,50.0,46.4,87,30.12,10.0,Calm,Calm,-,N/A,,Clear,0,2013-04-03 01:15:00
9:35 PM,51.8,46.4,82,30.13,10.0,Calm,Calm,-,N/A,,Clear,0,2013-04-03 01:35:00
9:55 PM,46.4,46.4,100,30.13,10.0,Calm,Calm,-,N/A,,Clear,0,2013-04-03 01:55:00
10:15 PM,46.4,46.4,100,30.13,10.0,Calm,Calm,-,N/A,,Clear,0,2013-04-03 02:15:00
10:55 PM,48.2,46.4,93,30.13,10.0,Calm,Calm,-,N/A,,Clear,0,2013-04-03 02:55:00
11:15 PM,46.4,46.4,100,30.12,10.0,Calm,Calm,-,N/A,,Clear,0,2013-04-03 03:15:00
11:55 PM,46.4,46.4,100,30.12,10.0,SSE,3.5,-,N/A,,Clear,160,2013-04-03 03:55:00